EW5697 Weather Reports


Display with metric or nautical units.
time (UTC)temp
F
wind
direction
speed
MPH
gust
MPH
rain 1hr
in
rain 24hr
in
rain mn
in
humidity
%
barometer
mb
20260831121526 61 143 0.0 1.0 0.00 0.00 0.00 40 1013.8
20260831120028 61 114 0.0 0.0 0.00 0.00 0.00 39 1014.0
20260831114532 61 195 0.0 0.0 0.00 0.00 0.00 39 1014.1
20260831113022 61 202 0.0 0.0 0.00 0.00 0.00 38 1014.1
20260831111521 61 146 0.0 0.0 0.00 0.00 0.00 38 1014.3
20260831110021 61 162 0.0 0.0 0.00 0.00 0.00 37 1014.4
20260831104516 62 115 0.0 0.0 0.00 0.00 0.00 36 1014.6
20260831103015 62 174 0.0 0.0 0.00 0.00 0.00 36 1014.6
20260831101513 61 131 0.0 0.0 0.00 0.00 0.00 36 1014.7
20260831100012 61 94 0.0 0.0 0.00 0.00 0.00 37 1014.9
20260831094511 60 143 0.0 0.0 0.00 0.00 0.00 38 1014.8
20260831093013 59 157 0.0 0.0 0.00 0.00 0.00 39 1014.9
20260831091508 59 172 0.0 0.0 0.00 0.00 0.00 38 1015.0
20260831090006 59 185 0.0 0.0 0.00 0.00 0.00 38 1015.0
20260831084504 59 180 0.0 0.0 0.00 0.00 0.00 37 1015.3
20260831083007 59 174 0.0 0.0 0.00 0.00 0.00 37 1015.4
20260831081501 59 174 0.0 0.0 0.00 0.00 0.00 38 1015.6
20260831074557 60 176 0.0 0.0 0.00 0.00 0.00 36 1015.8
20260831073052 61 176 0.0 0.0 0.00 0.00 0.00 36 1015.9
20260831071550 62 176 0.0 0.0 0.00 0.00 0.00 34 1015.8
20260831070043 63 176 0.0 0.0 0.00 0.00 0.00 32 1015.8
20260831064542 64 176 0.0 0.0 0.00 0.00 0.00 31 1015.9
20260831063042 65 177 0.0 0.0 0.00 0.00 0.00 31 1015.9
20260831061556 65 177 0.0 0.0 0.00 0.00 0.00 30 1015.9
20260831060040 66 178 0.0 0.0 0.00 0.00 0.00 30 1015.8
20260831054541 66 183 0.0 0.0 0.00 0.00 0.00 29 1015.8
20260831053041 67 212 0.0 0.0 0.00 0.00 0.00 29 1015.9
20260831051540 67 212 0.0 0.0 0.00 0.00 0.00 29 1015.9
20260831050038 66 154 0.0 0.0 0.00 0.00 0.00 29 1015.8
20260831044538 67 162 0.0 0.0 0.00 0.00 0.00 29 1015.8
20260831043037 67 191 0.0 0.0 0.00 0.00 0.00 29 1015.8
20260831041536 67 232 0.0 0.0 0.00 0.00 0.00 28 1015.7
20260831040036 67 202 0.0 0.0 0.00 0.00 0.00 28 1015.6
20260831034535 68 175 0.0 0.0 0.00 0.00 0.00 28 1015.4
20260831033036 68 190 0.0 0.0 0.00 0.00 0.00 28 1015.3
20260831031541 69 187 0.0 0.0 0.00 0.00 0.00 27 1015.2
20260831030034 70 180 0.0 0.0 0.00 0.00 0.00 26 1015.1
20260831024604 72 180 0.0 0.0 0.00 0.00 0.00 25 1015.0
20260831023032 74 191 0.0 0.0 0.00 0.00 0.00 24 1015.0
20260831021532 76 193 0.0 0.0 0.00 0.00 0.00 22 1015.0
20260831020032 78 202 0.0 0.0 0.00 0.00 0.00 21 1015.1
20260831014536 80 178 0.0 0.0 0.00 0.00 0.00 20 1015.1
20260831013029 81 191 0.0 0.0 0.00 0.00 0.00 19 1015.1
20260831011527 82 165 0.0 1.0 0.00 0.00 0.00 18 1015.2
20260831010029 83 137 0.0 0.0 0.00 0.00 0.00 17 1015.1
20260831004528 84 178 0.0 0.0 0.00 0.00 0.00 18 1015.2
20260831003025 85 197 0.0 0.0 0.00 0.00 0.00 18 1015.3
20260831001625 86 232 0.0 0.0 0.00 0.00 0.00 17 1015.4
20260831000023 86 131 0.0 0.0 0.00 0.00 0.00 17 1015.4
20260830234520 86 93 0.0 0.0 0.00 0.00 0.00 19 1015.6
20260830233018 86 185 0.0 3.0 0.00 0.00 0.00 19 1015.7
20260830231519 86 138 0.0 0.0 0.00 0.00 0.00 19 1015.7
20260830230017 86 282 0.0 0.0 0.00 0.00 0.00 24 1015.9
20260830224511 85 41 0.0 0.0 0.00 0.00 0.00 24 1016.1
20260830223010 84 272 0.0 0.0 0.00 0.00 0.00 25 1016.4
20260830221506 84 323 0.0 0.0 0.00 0.00 0.00 25 1016.6
20260830220003 83 95 0.0 0.0 0.00 0.00 0.00 27 1016.9
20260830214559 83 287 0.0 0.0 0.00 0.00 0.00 28 1017.2
20260830213055 81 18 0.0 0.0 0.00 0.00 0.00 28 1017.4
20260830211552 80 66 0.0 0.0 0.00 0.00 0.00 29 1017.6
20260830210052 80 307 0.0 0.0 0.00 0.00 0.00 30 1017.8
20260830204547 79 327 0.0 0.0 0.00 0.00 0.00 30 1017.8
20260830203057 78 323 0.0 0.0 0.00 0.00 0.00 31 1017.9
20260830201547 77 297 0.0 0.0 0.00 0.00 0.00 33 1018.1
20260830200037 75 295 0.0 0.0 0.00 0.00 0.00 35 1018.3
20260830194532 73 309 0.0 0.0 0.00 0.00 0.00 36 1018.3
20260830193028 71 315 0.0 0.0 0.00 0.00 0.00 39 1018.6
20260830191525 69 12 0.0 0.0 0.00 0.00 0.00 41 1018.9
20260830190030 67 2 0.0 0.0 0.00 0.00 0.00 44 1018.9
20260830184516 65 286 0.0 0.0 0.00 0.00 0.00 43 1019.2
20260830183012 64 316 0.0 0.0 0.00 0.00 0.00 46 1019.4
20260830181507 63 304 0.0 0.0 0.00 0.00 0.00 48 1019.4
20260830180006 61 285 0.0 0.0 0.00 0.00 0.00 51 1019.5
20260830174609 61 303 0.0 0.0 0.00 0.00 0.00 51 1019.7
20260830173110 59 25 0.0 0.0 0.00 0.00 0.00 54 1019.7
20260830171553 58 33 0.0 0.0 0.00 0.00 0.00 58 1019.8
20260830170049 56 35 0.0 0.0 0.00 0.00 0.00 60 1019.7
20260830164605 55 39 0.0 0.0 0.00 0.00 0.00 65 1019.8
20260830163057 53 39 0.0 0.0 0.00 0.00 0.00 67 1019.8
20260830161541 51 41 0.0 0.0 0.00 0.00 0.00 70 1019.8
20260830160039 50 42 0.0 0.0 0.00 0.00 0.00 73 1019.9
20260830154538 49 42 0.0 0.0 0.00 0.00 0.00 75 1020.1
20260830153037 47 42 0.0 0.0 0.00 0.00 0.00 78 1020.1
20260830151541 46 43 0.0 0.0 0.00 0.00 0.00 79 1020.0
20260830150039 45 43 0.0 0.0 0.00 0.00 0.00 79 1020.0
20260830144530 44 43 0.0 0.0 0.00 0.00 0.00 79 1019.9
20260830143029 44 43 0.0 0.0 0.00 0.00 0.00 78 1019.8
20260830141527 43 43 0.0 0.0 0.00 0.00 0.00 78 1019.7
20260830140026 43 43 0.0 0.0 0.00 0.00 0.00 77 1019.5
20260830134528 44 43 0.0 0.0 0.00 0.00 0.00 76 1019.5
20260830133025 44 43 0.0 0.0 0.00 0.00 0.00 76 1019.4
20260830131523 44 43 0.0 0.0 0.00 0.00 0.00 76 1019.5
20260830130024 44 43 0.0 0.0 0.00 0.00 0.00 75 1019.4
20260830124522 44 43 0.0 0.0 0.00 0.00 0.00 75 1019.4
20260830123020 44 43 0.0 0.0 0.00 0.00 0.00 73 1019.3